This demonstration page uses our WeatherBlox Daily Observations layout. Learn more.

Left ArrowRight Arrow

39.01783, -85.05884

Hourly Observations for January 7, 2022

Temp ( °F °C ) Dew Point ( °F °C ) Humidity (%) Winds ( mph kmh ) Pressure ( in mb ) Visibility ( mi km ) Precip ( " mm )
12:52 am 00:52 Cloudy with Light Snow 16 -8.9 8 -13.3 71 71 W 8 13 30.14 1021 9 14 0.00 0.00
1:52 am 01:52 Cloudy with Light Snow 16 -8.9 9 -12.8 74 74 NW 10 17 30.15 1021 3 5 0.00 0.00
2:52 am 02:52 Cloudy with Light Snow 14 -10 6 -14.4 71 71 W 10 17 30.18 1022 9 14 0.00 0.00
3:52 am 03:52 Cloudy with Light Snow 14 -10 7 -13.9 73 73 W 9 15 30.19 1022 9 14 0.00 0.00
4:52 am 04:52 Mostly Cloudy with Light Snow 14 -10 5 -15 67 67 WNW 13 20 30.20 1023 9 14 0.00 0.00
5:46 am 05:46 Partly Cloudy with Scattered Snow Showers 12 -11 3 -16 67 67 WNW 13 20 30.29 1026 9 14 0.00 0.00
5:52 am 05:52 Partly Cloudy with Scattered Snow Showers 12 -11.1 4 -15.6 70 70 WNW 12 19 30.24 1024 9 14 0.00 0.00
6:14 am 06:14 Mostly Cloudy with Light Snow 12 -11.1 4 -15.6 70 70 WNW 12 19 30.30 1026 9 14 0.00 0.00
6:52 am 06:52 Cloudy with Light Snow 12 -11.1 4 -15.6 70 70 WNW 9 15 30.27 1025 9 14 0.00 0.00
7:52 am 07:52 Cloudy 11 -11.7 4 -15.6 73 73 WNW 9 15 30.27 1025 8 13 0.00 0.00
8:52 am 08:52 Cloudy with Mist and Fog 12 -11.1 5 -15 73 73 WNW 9 15 30.31 1026 5 8 0.00 0.00
9:52 am 09:52 Cloudy 12 -11.1 5 -15 73 73 W 9 15 30.33 1027 7 11 0.00 0.00
10:52 am 10:52 Cloudy 13 -10.6 5 -15 70 70 W 8 13 30.36 1028 10 16 0.00 0.00
11:52 am 11:52 Cloudy 14 -10 5 -15 67 67 SW 10 17 30.37 1029 10 16 0.00 0.00
12:52 pm 12:52 Cloudy 15 -9.4 7 -13.9 70 70 SW 6 9 30.36 1028 9 14 0.00 0.00
1:52 pm 13:52 Cloudy 15 -9.4 6 -14.4 67 67 SW 9 15 30.36 1028 10 16 0.00 0.00
2:52 pm 14:52 Cloudy 15 -9.4 7 -13.9 70 70 WNW 7 11 30.37 1028 10 16 0.00 0.00
3:52 pm 15:52 Mostly Cloudy with Light Snow 17 -8.3 7 -13.9 64 64 WNW 6 9 30.38 1029 6 10 0.00 0.00
4:52 pm 16:52 Partly Cloudy 15 -9.4 6 -14.4 67 67 SW 3 6 30.42 1030 10 16 0.00 0.00
5:22 pm 17:22 Mostly Cloudy 15 -9.4 6 -14.4 67 67 Calm 30.46 1032 10 16 0.00 0.00
5:52 pm 17:52 Partly Cloudy 15 -9.4 6 -14.4 67 67 Calm 30.43 1030 10 16 0.00 0.00
6:52 pm 18:52 Mostly Clear 14 -10 6 -14.4 71 71 Calm 30.44 1031 10 16 0.00 0.00
7:52 pm 19:52 Clear 14 -10 7 -13.9 73 73 ESE 3 6 30.44 1031 10 16 0.00 0.00
8:52 pm 20:52 Mostly Cloudy 15 -9.4 8 -13.3 74 74 Calm 30.46 1032 10 16 0.00 0.00
9:52 pm 21:52 Mostly Cloudy 14 -10 6 -14.4 71 71 ESE 7 11 30.45 1031 10 16 0.00 0.00
10:52 pm 22:52 Mostly Clear 14 -10 7 -13.9 73 73 SSE 10 17 30.45 1031 10 16 0.00 0.00
11:52 pm 23:52 Mostly Clear 12 -11.1 6 -14.4 77 77 S 8 13 30.45 1031 10 16 0.00 0.00

Powered by AerisWeather